Flight Track Log - Related Links

Times and Time Zones

All times are in EDT time to prevent confusion due to time zone crossing. See the N508QS flight status page for this flight to view local times or setup timezone preferences in your user account.

Time Position Orientation Groundspeed Altitude Reporting Facility
EDT Latitude Longitude Course Direction KTS MPH feet Rate Location/Type
Mon 12:34:21 PM 39.8833 -75.2333 75° East 170 196 700  Level Philadelphia TRACON
Mon 12:35:27 PM 39.9000 -75.1500 75° East 243 280 3,000 1,263 Climbing Philadelphia TRACON
Mon 12:36:15 PM 39.9167 -75.0833 72° East 268 308 3,100 450 Climbing Philadelphia TRACON
Mon 12:37:27 PM 40.0000 -75.0500 17° North 265 305 3,900 637 Climbing Philadelphia TRACON
Mon 12:39:14 PM 40.1167 -75.0000 18° North 248 285 5,000 395 Climbing New York TRACON
Mon 12:40:14 PM 40.1833 -74.9667 21° North 261 300 5,000  Level New York TRACON
Mon 12:41:14 PM 40.2500 -74.9333 21° North 258 297 5,000  Level New York TRACON
Mon 12:42:14 PM 40.3167 -74.8833 30° Northeast 262 302 5,000  Level New York TRACON
Mon 12:43:14 PM 40.3833 -74.8500 21° North 268 308 5,000 -200 Level New York TRACON
Mon 12:44:14 PM 40.4333 -74.7667 52° Northeast 269 310 4,600 -450 Descending New York TRACON
Mon 12:45:14 PM 40.4500 -74.6833 75° East 267 307 4,100 -500 Descending New York TRACON
Mon 12:46:14 PM 40.4833 -74.6000 62° Northeast 264 304 3,600 -1,000 Descending New York TRACON
Mon 12:47:20 PM 40.5333 -74.5167 52° Northeast 256 295 2,000 -800 Descending New York TRACON
Mon 12:48:14 PM 40.5833 -74.4500 45° Northeast 224 258 2,000  Level New York TRACON
Mon 12:49:14 PM 40.6167 -74.4000 49° Northeast 217 250 2,000  Level New York TRACON
Mon 12:50:14 PM 40.6500 -74.3500 49° Northeast 176 203 2,000  Level New York TRACON
Mon 12:51:08 PM 40.6833 -74.3167 37° Northeast 173 199 2,000 -53 Level New York TRACON
Mon 12:52:08 PM 40.7167 -74.2667 49° Northeast 175 201 1,900 -238 Descending New York TRACON
Mon 12:53:14 PM 40.7500 -74.2167 49° Northeast 172 198 1,500 -190 Descending New York TRACON
Mon 12:54:14 PM 40.7833 -74.1667 49° Northeast 170 196 1,500 -250 Level New York TRACON
Mon 12:55:14 PM 40.8167 -74.1167 49° Northeast 149 171 1,000 -600 Descending New York TRACON
Mon 12:56:14 PM 40.8333 -74.0833 57° Northeast 125 144 300 -700 Descending New York TRACON
Mon 12:58:00 PM 40.8500 -74.0500 62° Northeast  Level FlightAware Approximate
Mon 01:05:00 PM 40.8501 -74.0608 62° Northeast  Level Estimated

Login

Don't have an account? Register now (free) for customized features, flight alerts, and more!